^^
Datos históricos de la estación: Murcia-Puente Tocinos
Diario Informe para Enero 2, 2019 Unidades:  Inglés    Métrico   Ambas
Diario Semanal Mensual Anual Configurable
  Máximo: Mínimo: Media:
Temperatura: 67.5 °F 39.7 °F 51.6 °F
Punto de rocio: 46.9 °F 32.2 °F 37.9 °F
Humedad: 85% 28% 64%
Velocidad viento: 12mph 0mph 4mph
Racha viento: 17mph - -
Viento- - South
Presión: 30.4 in 30.2 in -
Precipitación: 0 in    
Historical Graphs
 
 
Tabla de datos para Enero 2, 2019
Hora Temperatura Punto de rocio Presión Viento Velocidad viento Racha viento Humedad Intensidad lluvia(por hora) Nubes
00:00 49.1 °F 41.9 °F 30.4 in SSW 5 mph 7 mph 76% 0 in CLR
00:05 48.9 °F 41.4 °F 30.3 in South 4.7 mph 5.9 mph 75% 0 in CLR
00:10 48.7 °F 40.8 °F 30.3 in South 4.7 mph 5.9 mph 74% 0 in CLR
00:15 48.6 °F 41 °F 30.3 in South 4.7 mph 5.8 mph 75% 0 in CLR
00:20 48.4 °F 40.5 °F 30.3 in South 4.7 mph 6.9 mph 74% 0 in CLR
00:25 48.4 °F 40.1 °F 30.3 in SSW 4.7 mph 5.8 mph 73% 0 in CLR
00:30 48.4 °F 40.1 °F 30.3 in SSW 5 mph 7 mph 73% 0 in CLR
00:35 48.6 °F 40.3 °F 30.4 in SSW 4.3 mph 4.6 mph 73% 0 in CLR
00:40 48.6 °F 40.3 °F 30.4 in SW 4 mph 5.2 mph 73% 0 in CLR
00:45 48.4 °F 40.1 °F 30.4 in WSW 4 mph 4.6 mph 73% 0 in CLR
00:50 48 °F 39.7 °F 30.3 in SW 3 mph 6 mph 73% 0 in CLR
00:55 48 °F 40.1 °F 30.3 in SW 3.6 mph 6.9 mph 74% 0 in CLR
01:00 47.8 °F 39.9 °F 30.3 in SW 5 mph 6 mph 74% 0 in CLR
01:05 47.7 °F 40.1 °F 30.3 in SSW 4 mph 5.9 mph 75% 0 in CLR
01:10 47.7 °F 40.5 °F 30.3 in SW 4 mph 4.6 mph 76% 0 in CLR
01:15 47.7 °F 40.8 °F 30.3 in SSW 4 mph 6.2 mph 77% 0 in CLR
01:20 47.5 °F 40.6 °F 30.3 in SSW 5 mph 6 mph 77% 0 in CLR
01:25 47.5 °F 40.6 °F 30.3 in SSW 4 mph 5.8 mph 77% 0 in CLR
01:30 47.5 °F 40.8 °F 30.3 in SW 5 mph 6 mph 78% 0 in CLR
01:35 47.1 °F 40.6 °F 30.3 in SW 4.3 mph 5.8 mph 78% 0 in CLR
01:40 47.1 °F 40.6 °F 30.3 in SW 5 mph 6 mph 78% 0 in CLR
01:45 46.9 °F 40.5 °F 30.3 in SW 5 mph 6 mph 78% 0 in CLR
01:50 46.8 °F 39.9 °F 30.3 in SW 3.6 mph 4.6 mph 77% 0 in CLR
01:55 46.8 °F 39.9 °F 30.3 in SW 3.6 mph 4.6 mph 77% 0 in CLR
02:00 46.8 °F 39.6 °F 30.3 in SW 3 mph 6 mph 76% 0 in CLR
02:05 46.6 °F 39.4 °F 30.3 in SSW 3.1 mph 2.4 mph 76% 0 in CLR
02:10 46.4 °F 39.2 °F 30.3 in SW 2 mph 4.6 mph 76% 0 in CLR
02:15 46.2 °F 37.9 °F 30.3 in SSW 2 mph 5.8 mph 73% 0 in CLR
02:20 46.2 °F 37.9 °F 30.3 in SW 3.1 mph 4.6 mph 73% 0 in CLR
02:25 46.2 °F 37.9 °F 30.3 in South 3.1 mph 6.2 mph 73% 0 in CLR
02:30 45.9 °F 37.9 °F 30.3 in SSE 4 mph 5.8 mph 74% 0 in CLR
02:35 45.3 °F 37.6 °F 30.3 in SW 4 mph 5.8 mph 74% 0 in CLR
02:40 45.1 °F 37.8 °F 30.3 in SSW 4.7 mph 4.7 mph 75% 0 in CLR
02:45 45.1 °F 37.8 °F 30.3 in SW 4.7 mph 6.9 mph 75% 0 in CLR
02:50 45.1 °F 37.8 °F 30.3 in SSW 4.3 mph 4.6 mph 75% 0 in CLR
02:55 45.1 °F 37.8 °F 30.3 in SSW 4.3 mph 4 mph 75% 0 in CLR
03:00 45.1 °F 37.8 °F 30.3 in SSW 3 mph 5 mph 75% 0 in CLR
03:05 45 °F 37.6 °F 30.3 in SSW 3.1 mph 4.7 mph 75% 0 in CLR
03:10 45 °F 37.2 °F 30.3 in South 3.1 mph 4.6 mph 74% 0 in CLR
03:15 45 °F 37.2 °F 30.3 in South 3.1 mph 3.5 mph 74% 0 in CLR
03:20 44.8 °F 37 °F 30.3 in South 2.9 mph 4.6 mph 74% 0 in CLR
03:25 44.6 °F 37.2 °F 30.3 in South 2 mph 6 mph 75% 0 in CLR
03:30 44.2 °F 36.5 °F 30.3 in SSE 3.6 mph 4.6 mph 74% 0 in CLR
03:35 43.9 °F 36.5 °F 30.3 in SSE 3.6 mph 5.8 mph 75% 0 in CLR
03:40 43.3 °F 36 °F 30.3 in SSE 4.3 mph 5.8 mph 75% 0 in CLR
03:45 42.8 °F 35.8 °F 30.3 in SSE 5 mph 7 mph 76% 0 in CLR
03:50 42.4 °F 35.4 °F 30.3 in SSE 5.2 mph 5.8 mph 76% 0 in CLR
03:55 42.3 °F 35.6 °F 30.3 in SSE 5 mph 6 mph 77% 0 in CLR
04:00 42.1 °F 35.8 °F 30.3 in SSE 5 mph 7 mph 78% 0 in CLR
04:05 42.1 °F 35.8 °F 30.3 in South 4.7 mph 5.8 mph 78% 0 in CLR
04:10 42.3 °F 36 °F 30.3 in South 4.3 mph 5.8 mph 78% 0 in CLR
04:15 42.4 °F 35.8 °F 30.3 in South 4.3 mph 6.9 mph 77% 0 in CLR
04:20 42.6 °F 35.6 °F 30.3 in South 5 mph 6 mph 76% 0 in CLR
04:25 42.6 °F 35.6 °F 30.3 in South 4.7 mph 4.6 mph 76% 0 in CLR
04:30 42.6 °F 35.6 °F 30.3 in South 3 mph 6 mph 76% 0 in CLR
04:35 42.6 °F 35.6 °F 30.3 in SSE 3.6 mph 6.9 mph 76% 0 in CLR
04:40 42.4 °F 35.8 °F 30.3 in South 4.3 mph 6.9 mph 77% 0 in CLR
04:45 42.4 °F 35.8 °F 30.3 in SSW 4.3 mph 5.8 mph 77% 0 in CLR
04:50 42.4 °F 35.8 °F 30.3 in SSW 5 mph 6 mph 77% 0 in CLR
04:55 42.4 °F 35.8 °F 30.3 in SSW 4 mph 3.5 mph 77% 0 in CLR
05:00 42.4 °F 35.4 °F 30.3 in SSW 2 mph 4 mph 76% 0 in CLR
05:05 42.3 °F 35.2 °F 30.3 in SSE 2.9 mph 4.6 mph 76% 0 in CLR
05:10 42.1 °F 35.1 °F 30.3 in SSE 3 mph 6 mph 76% 0 in CLR
05:15 41.5 °F 34.9 °F 30.3 in SSW 3.1 mph 5.8 mph 77% 0 in CLR
05:20 41.4 °F 35.1 °F 30.3 in South 4.3 mph 5.8 mph 78% 0 in CLR
05:25 41.2 °F 34.5 °F 30.3 in South 4.3 mph 5.8 mph 77% 0 in CLR
05:30 41.2 °F 34.5 °F 30.3 in SSW 4.3 mph 5.8 mph 77% 0 in CLR
05:35 41.4 °F 34.3 °F 30.3 in SSW 4.3 mph 6.9 mph 76% 0 in CLR
05:40 41.5 °F 34.2 °F 30.3 in SSW 4 mph 4.6 mph 75% 0 in CLR
05:45 41.7 °F 34 °F 30.3 in South 4 mph 6.9 mph 74% 0 in CLR
05:50 41.7 °F 34 °F 30.3 in SSW 4.3 mph 5.8 mph 74% 0 in CLR
05:55 41.9 °F 34.2 °F 30.3 in SSW 4.3 mph 5.2 mph 74% 0 in CLR
06:00 42.1 °F 34 °F 30.3 in SSW 5 mph 6 mph 73% 0 in CLR
06:05 41.9 °F 34 °F 30.3 in South 4.3 mph 5.8 mph 73% 0 in CLR
06:10 41.9 °F 34 °F 30.3 in South 4 mph 5.8 mph 73% 0 in CLR
06:15 41.7 °F 33.6 °F 30.3 in South 5 mph 6 mph 73% 0 in CLR
06:20 41.9 °F 34 °F 30.3 in SSW 3.6 mph 4.6 mph 73% 0 in CLR
06:25 41.9 °F 34 °F 30.3 in South 3.6 mph 4.6 mph 73% 0 in CLR
06:30 41.7 °F 33.6 °F 30.3 in South 3 mph 6 mph 73% 0 in CLR
06:35 41.7 °F 33.6 °F 30.3 in South 3.6 mph 5.8 mph 73% 0 in CLR
06:40 41.7 °F 33.6 °F 30.3 in South 5 mph 6 mph 73% 0 in CLR
06:45 41.5 °F 33.6 °F 30.3 in South 5 mph 6 mph 73% 0 in CLR
06:50 41.7 °F 33.6 °F 30.3 in South 4 mph 6.9 mph 73% 0 in CLR
06:55 41.5 °F 33.4 °F 30.3 in South 4 mph 4.6 mph 73% 0 in CLR
07:00 41.5 °F 33.4 °F 30.3 in South 5 mph 6 mph 73% 0 in CLR
07:05 41.7 °F 33.6 °F 30.3 in SSW 4.3 mph 5.8 mph 73% 0 in CLR
07:10 41.7 °F 33.8 °F 30.3 in South 5 mph 6 mph 73% 0 in CLR
07:15 41.7 °F 33.6 °F 30.3 in South 4.3 mph 4.6 mph 73% 0 in CLR
07:20 41.9 °F 33.4 °F 30.3 in SSW 3.6 mph 4.6 mph 72% 0 in CLR
07:25 42.1 °F 33.6 °F 30.3 in South 3.6 mph 4.6 mph 72% 0 in CLR
07:30 42.1 °F 33.4 °F 30.3 in SSW 3.6 mph 3.5 mph 71% 0 in CLR
07:35 42.1 °F 33.4 °F 30.3 in SSW 3.6 mph 3.5 mph 71% 0 in CLR
07:40 42.1 °F 33.6 °F 30.3 in SSW 2 mph 4 mph 72% 0 in CLR
07:45 41.7 °F 33.4 °F 30.3 in NNW 2 mph 2.9 mph 72% 0 in CLR
07:50 41.5 °F 33.3 °F 30.3 in NNW 2 mph 3 mph 72% 0 in CLR
07:55 41.2 °F 33.3 °F 30.3 in NNW 1.8 mph   73% 0 in CLR
08:00 40.8 °F 33.3 °F 30.3 in Calm     74% 0 in CLR
08:05 40.5 °F 33.3 °F 30.3 in Calm     75% 0 in CLR
08:10 40.3 °F 32.5 °F 30.3 in Calm   3.5 mph 74% 0 in CLR
08:15 41 °F 32.4 °F 30.3 in Calm   5.8 mph 71% 0 in CLR
08:20 41.4 °F 32.7 °F 30.3 in WSW 3 mph 6 mph 71% 0 in CLR
08:25 41.5 °F 32.7 °F 30.3 in SW 3.1 mph 5.8 mph 71% 0 in CLR
08:30 41.5 °F 32.7 °F 30.3 in SW 4.3 mph 4.6 mph 71% 0 in CLR
08:35 41.5 °F 32.5 °F 30.3 in SW 4.3 mph 3.5 mph 70% 0 in CLR
08:40 41.7 °F 33.1 °F 30.3 in SW 2.9 mph 3.5 mph 71% 0 in CLR
08:45 41.4 °F 33.1 °F 30.3 in SSE 2.9 mph 4.6 mph 72% 0 in CLR
08:50 40.8 °F 32.7 °F 30.3 in SSE 3 mph 7 mph 73% 0 in CLR
08:55 40.1 °F 32.7 °F 30.3 in SE 3.1 mph 7.6 mph 75% 0 in CLR
09:00 39.7 °F 32.7 °F 30.3 in SE 5 mph 8 mph 76% 0 in CLR
09:05 39.9 °F 33.3 °F 30.3 in SSE 4 mph 5.8 mph 77% 0 in CLR
09:10 39.9 °F 33.1 °F 30.3 in SSE 3.6 mph 5.8 mph 76% 0 in CLR
09:15 40.1 °F 33.1 °F 30.3 in SSE 3.6 mph 5.8 mph 76% 0 in CLR
09:20 40.5 °F 33.4 °F 30.3 in SSE 4 mph 5.9 mph 76% 0 in CLR
09:25 40.6 °F 33.3 °F 30.3 in SSE 4 mph 4.6 mph 75% 0 in CLR
09:30 41 °F 33.6 °F 30.3 in ESE 4 mph 5.2 mph 75% 0 in CLR
09:35 41.5 °F 34 °F 30.3 in SE 4 mph 4.6 mph 74% 0 in CLR
09:40 42.1 °F 34.3 °F 30.3 in ESE 3.1 mph 4.7 mph 74% 0 in CLR
09:45 42.3 °F 34.2 °F 30.3 in SE 3.1 mph 3.6 mph 73% 0 in CLR
09:50 42.4 °F 34.3 °F 30.3 in SE 3 mph 5 mph 73% 0 in CLR
09:55 43 °F 34.5 °F 30.3 in SSE 3.1 mph 4.6 mph 72% 0 in CLR
10:00 43.3 °F 34.9 °F 30.3 in SSE 3 mph 6 mph 72% 0 in CLR
10:05 43.7 °F 34.5 °F 30.3 in SSW 3.1 mph 5.8 mph 70% 0 in CLR
10:10 44.2 °F 34.7 °F 30.3 in SW 3.6 mph 4.6 mph 69% 0 in CLR
10:15 45 °F 35.1 °F 30.3 in SW 3.6 mph 3.5 mph 68% 0 in CLR
10:20 45.7 °F 34.5 °F 30.3 in South 3.1 mph 4.6 mph 65% 0 in CLR
10:25 46.6 °F 35.1 °F 30.3 in South 3.1 mph 4.6 mph 64% 0 in CLR
10:30 47.5 °F 35.1 °F 30.3 in SW 2.9 mph 4.6 mph 62% 0 in CLR
10:35 48 °F 34.9 °F 30.3 in SSW 2.9 mph 4.6 mph 60% 0 in CLR
10:40 48.6 °F 34.9 °F 30.3 in South 3 mph 6 mph 59% 0 in CLR
10:45 49.6 °F 35.1 °F 30.3 in SSW 3.1 mph 4.7 mph 57% 0 in CLR
10:50 49.8 °F 33.8 °F 30.3 in SW 3.1 mph 5.8 mph 54% 0 in CLR
10:55 50.4 °F 33.4 °F 30.3 in SW 3.1 mph 4.6 mph 52% 0 in CLR
11:00 50.7 °F 32.7 °F 30.3 in SW 2 mph 5 mph 50% 0 in CLR
11:05 51.3 °F 32.2 °F 30.3 in WNW 2.9 mph 3.6 mph 48% 0 in CLR
11:10 51.6 °F 33.1 °F 30.3 in West 2 mph 5 mph 49% 0 in CLR
11:15 53.1 °F 33.3 °F 30.3 in WNW 2.4 mph   47% 0 in CLR
11:20 54 °F 33.1 °F 30.3 in WNW 1 mph 2 mph 45% 0 in CLR
11:25 54.7 °F 33.3 °F 30.3 in WNW 1.4 mph 2.3 mph 44% 0 in CLR
11:30 54.9 °F 33.3 °F 30.3 in WNW 1 mph 3 mph 44% 0 in CLR
11:35 54.9 °F 34 °F 30.3 in WNW 1.4 mph 2.3 mph 45% 0 in CLR
11:40 55 °F 34.7 °F 30.3 in SW 2 mph 5 mph 46% 0 in CLR
11:45 55.6 °F 34.5 °F 30.3 in SSW 1.8 mph 4.7 mph 45% 0 in CLR
11:50 55.9 °F 34.3 °F 30.3 in South 2 mph 5 mph 44% 0 in CLR
11:55 56.5 °F 34.9 °F 30.3 in South 2.9 mph 4.6 mph 44% 0 in CLR
12:00 56.8 °F 35.2 °F 30.3 in SSW 3 mph 7 mph 44% 0 in CLR
12:05 57.6 °F 34.5 °F 30.3 in SSW 3.1 mph 4.6 mph 42% 0 in CLR
12:10 58.3 °F 35.2 °F 30.3 in SSE 4 mph 4.6 mph 42% 0 in CLR
12:15 58.8 °F 35.2 °F 30.3 in SSE 4 mph 5.8 mph 41% 0 in CLR
12:20 59.4 °F 35.6 °F 30.3 in SSW 3.6 mph 5.8 mph 41% 0 in CLR
12:25 59.5 °F 35.8 °F 30.3 in SW 3.6 mph 6.9 mph 41% 0 in CLR
12:30 60.1 °F 35.8 °F 30.3 in SSW 4 mph 5.8 mph 40% 0 in CLR
12:35 60.4 °F 35.2 °F 30.3 in SSW 4 mph 6.9 mph 39% 0 in CLR
12:40 60.6 °F 34.9 °F 30.3 in SW 4.7 mph 9.2 mph 38% 0 in CLR
12:45 61 °F 35.2 °F 30.3 in WSW 4.7 mph 10.7 mph 38% 0 in CLR
12:50 61.2 °F 34.7 °F 30.3 in West 6.2 mph 6.9 mph 37% 0 in CLR
12:55 61.5 °F 35.1 °F 30.3 in South 6.2 mph 5.8 mph 37% 0 in CLR
13:00 61.9 °F 34.5 °F 30.3 in SW 5 mph 10 mph 36% 0 in CLR
13:05 62.2 °F 34.2 °F 30.2 in SSW 4.7 mph 8.1 mph 35% 0 in CLR
13:10 62.6 °F 34.5 °F 30.2 in SSW 6 mph 9 mph 35% 0 in CLR
13:15 63 °F 34.2 °F 30.2 in SSW 5.9 mph 6.9 mph 34% 0 in CLR
13:20 63.1 °F 34.3 °F 30.2 in SW 5.4 mph 6.9 mph 34% 0 in CLR
13:25 63.5 °F 34 °F 30.2 in WSW 5.4 mph 5.8 mph 33% 0 in CLR
13:30 63.9 °F 33.4 °F 30.2 in WSW 5 mph 10 mph 32% 0 in CLR
13:35 63.9 °F 33.4 °F 30.2 in SW 4.7 mph 8.7 mph 32% 0 in CLR
13:40 64 °F 33.6 °F 30.2 in WSW 5.4 mph 6.9 mph 32% 0 in CLR
13:45 64.4 °F 33.1 °F 30.2 in SW 5.4 mph 9.2 mph 31% 0 in CLR
13:50 64.8 °F 33.4 °F 30.2 in SW 5.9 mph 8.1 mph 31% 0 in CLR
13:55 64.9 °F 33.6 °F 30.2 in WSW 5.9 mph 6.9 mph 31% 0 in CLR
14:00 65.1 °F 32.9 °F 30.2 in SW 6 mph 9 mph 30% 0 in CLR
14:05 65.1 °F 33.6 °F 30.2 in WSW 5.4 mph 6.9 mph 31% 0 in CLR
14:10 65.1 °F 33.6 °F 30.2 in WSW 6.2 mph 9.2 mph 31% 0 in CLR
14:15 65.3 °F 34 °F 30.2 in SW 6.2 mph 9.2 mph 31% 0 in CLR
14:20 65.1 °F 33.6 °F 30.2 in SW 5.9 mph 10.4 mph 31% 0 in CLR
14:25 65.1 °F 33.6 °F 30.2 in SSE 5.9 mph 8.1 mph 31% 0 in CLR
14:30 65.5 °F 34 °F 30.2 in SW 7 mph 10 mph 31% 0 in CLR
14:35 65.5 °F 34 °F 30.2 in SSW 6.4 mph 6.9 mph 31% 0 in CLR
14:40 65.7 °F 34.2 °F 30.2 in WSW 6.2 mph 8.1 mph 31% 0 in CLR
14:45 65.8 °F 33.4 °F 30.2 in SSW 6.2 mph 6.9 mph 30% 0 in CLR
14:50 66 °F 33.6 °F 30.2 in SSW 5.2 mph 8.1 mph 30% 0 in CLR
14:55 66.2 °F 33.8 °F 30.2 in SSW 5.2 mph 6.9 mph 30% 0 in CLR
15:00 66.2 °F 33.8 °F 30.2 in SSW 5 mph 8 mph 30% 0 in CLR
15:05 66 °F 33.6 °F 30.2 in SW 5.2 mph 8.1 mph 30% 0 in CLR
15:10 66 °F 33.6 °F 30.2 in South 6.2 mph 6.9 mph 30% 0 in CLR
15:15 66.2 °F 33.8 °F 30.2 in SSW 6.2 mph 6.9 mph 30% 0 in CLR
15:20 66.2 °F 33.1 °F 30.2 in South 5.2 mph 8.7 mph 29% 0 in FEW
15:25 66.4 °F 33.1 °F 30.2 in SW 5.2 mph 8.1 mph 29% 0 in
15:30 66.4 °F 34 °F 30.2 in SSW 6 mph 9 mph 30% 0 in FEW
15:35 66.6 °F 33.3 °F 30.2 in SSW 5.9 mph 6.9 mph 29% 0 in
15:40 66.6 °F 33.3 °F 30.2 in SSW 5.2 mph 8.1 mph 29% 0 in FEW
15:45 66.7 °F 33.4 °F 30.2 in SSW 5.2 mph 5.8 mph 29% 0 in
15:50 66.7 °F 33.4 °F 30.2 in SSE 5.2 mph 4.6 mph 29% 0 in FEW
15:55 66.9 °F 33.6 °F 30.2 in South 5.2 mph 6.9 mph 29% 0 in
16:00 66.9 °F 33.6 °F 30.2 in SSE 5 mph 6 mph 29% 0 in CLR
16:05 66.9 °F 32.7 °F 30.2 in South 4 mph 5.8 mph 28% 0 in
16:10 67.3 °F 34 °F 30.2 in SSE 2.9 mph 4.6 mph 29% 0 in FEW
16:15 67.5 °F 34.2 °F 30.2 in SE 2.9 mph 4.7 mph 29% 0 in
16:20 67.5 °F 34.2 °F 30.2 in South 3.1 mph 4.6 mph 29% 0 in CLR
16:25 67.5 °F 33.3 °F 30.2 in South 3.1 mph 5.2 mph 28% 0 in CLR
16:30 67.5 °F 33.3 °F 30.2 in South 5 mph 5 mph 28% 0 in CLR
16:35 67.5 °F 33.3 °F 30.2 in SE 4 mph 4.6 mph 28% 0 in CLR
16:40 67.5 °F 33.3 °F 30.2 in SSE 2.9 mph 5.2 mph 28% 0 in CLR
16:45 67.5 °F 33.3 °F 30.2 in South 2.9 mph 5.8 mph 28% 0 in CLR
16:50 67.5 °F 33.3 °F 30.2 in SSE 3.6 mph 4.6 mph 28% 0 in FEW
16:55 67.3 °F 34 °F 30.2 in SE 3.6 mph 4.7 mph 29% 0 in
17:00 67.3 °F 34 °F 30.2 in SSE 3 mph 6 mph 29% 0 in CLR
17:05 67.1 °F 33.8 °F 30.2 in SSE 3.6 mph 4.6 mph 29% 0 in
17:10 67.3 °F 34 °F 30.2 in SSE 3 mph 5 mph 29% 0 in FEW
17:15 66.9 °F 33.6 °F 30.2 in SSE 3.1 mph 4.6 mph 29% 0 in
17:20 66.6 °F 35.1 °F 30.2 in NE 2.4 mph 11.5 mph 31% 0 in FEW
17:25 65.1 °F 38.1 °F 30.2 in NE 2.4 mph 11.8 mph 37% 0 in
17:30 63.7 °F 41.4 °F 30.2 in NNE 7 mph 17 mph 44% 0 in FEW
17:35 61.3 °F 44.1 °F 30.2 in NNE 7.4 mph 16.1 mph 53% 0 in FEW
17:40 60.3 °F 45 °F 30.2 in NNE 12 mph 15 mph 57% 0 in FEW
17:45 59.4 °F 45 °F 30.2 in WNW 11.2 mph 15 mph 59% 0 in
17:50 58.8 °F 45 °F 30.2 in NE 10.2 mph 16.1 mph 60% 0 in FEW
17:55 58.5 °F 44.6 °F 30.2 in ENE 10.2 mph 12.7 mph 60% 0 in
18:00 58.3 °F 44.1 °F 30.2 in NE 10 mph 14 mph 59% 0 in CLR
18:05 57.9 °F 43.7 °F 30.2 in NE 10 mph 11.5 mph 59% 0 in CLR
18:10 57.7 °F 43.5 °F 30.2 in ENE 8.5 mph 10.7 mph 59% 0 in FEW
18:15 57.6 °F 43.3 °F 30.2 in ENE 8.5 mph 8.1 mph 59% 0 in CLR
18:20 57.4 °F 43.5 °F 30.2 in NE 7 mph 11 mph 60% 0 in FEW
18:25 56.8 °F 43.5 °F 30.2 in NNE 6.9 mph 8.1 mph 61% 0 in CLR
18:30 56.5 °F 44.1 °F 30.2 in NE 6.2 mph 10.4 mph 63% 0 in FEW
18:35 56.1 °F 44.4 °F 30.3 in NNE 6.2 mph 10.4 mph 65% 0 in CLR
18:40 55.9 °F 45.1 °F 30.3 in NNE 7.4 mph 10.4 mph 67% 0 in FEW
18:45 55.8 °F 45.3 °F 30.3 in NE 7.4 mph 9.2 mph 68% 0 in FEW
18:50 55.6 °F 46.2 °F 30.3 in NNE 8.1 mph 10.4 mph 71% 0 in FEW
18:55 55.6 °F 46.2 °F 30.3 in NE 8.1 mph 11.5 mph 71% 0 in CLR
19:00 55.4 °F 46.6 °F 30.3 in NE 9 mph 13 mph 72% 0 in CLR
19:05 55.2 °F 46.2 °F 30.3 in NE 8.7 mph 9.2 mph 72% 0 in CLR
19:10 55 °F 46.2 °F 30.3 in NE 7.4 mph 12.7 mph 72% 0 in FEW
19:15 54.9 °F 46 °F 30.3 in NE 7.4 mph 9.7 mph 72% 0 in CLR
19:20 54.7 °F 45.5 °F 30.3 in NE 7 mph 10 mph 71% 0 in CLR
19:25 54.5 °F 45.7 °F 30.3 in NNE 6.9 mph 5.2 mph 72% 0 in CLR
19:30 54.3 °F 45.9 °F 30.3 in NE 5.2 mph 6.9 mph 73% 0 in CLR
19:35 54 °F 45.9 °F 30.3 in NE 5.2 mph 8.1 mph 74% 0 in CLR
19:40 53.8 °F 46 °F 30.3 in NE 5.2 mph 5.8 mph 75% 0 in CLR
19:45 53.6 °F 46.2 °F 30.3 in NE 5.2 mph 6.9 mph 76% 0 in CLR
19:50 53.4 °F 46 °F 30.3 in NNE 5.4 mph 8.1 mph 76% 0 in CLR
19:55 53.4 °F 46.4 °F 30.3 in NNE 5.4 mph 6.9 mph 77% 0 in CLR
20:00 53.1 °F 46.4 °F 30.3 in NNE 6 mph 7 mph 78% 0 in CLR
20:05 52.9 °F 46.6 °F 30.3 in NNE 5.4 mph 6.9 mph 79% 0 in CLR
20:10 52.7 °F 46.4 °F 30.3 in NNE 4.7 mph 5.9 mph 79% 0 in CLR
20:15 52.5 °F 46.6 °F 30.3 in NNE 4.7 mph 5.8 mph 80% 0 in CLR
20:20 52.5 °F 46.6 °F 30.3 in NNE 4.3 mph 5.8 mph 80% 0 in CLR
20:25 52.3 °F 46.8 °F 30.3 in North 4.3 mph 4.6 mph 81% 0 in CLR
20:30 52.2 °F 46.6 °F 30.3 in NNE 3 mph 5 mph 81% 0 in CLR
20:35 52.2 °F 46.6 °F 30.3 in NNW 3.1 mph 2.3 mph 81% 0 in CLR
20:40 52 °F 46.8 °F 30.3 in NNW 1.4 mph   82% 0 in CLR
20:45 52 °F 46.8 °F 30.3 in NNE 1.4 mph 4.6 mph 82% 0 in CLR
20:50 52 °F 46.9 °F 30.3 in North 1.4 mph   83% 0 in CLR
20:55 52 °F 46.9 °F 30.3 in NNW 1.4 mph   83% 0 in CLR
21:00 51.8 °F 46.8 °F 30.3 in Calm   2 mph 83% 0 in CLR
21:05 51.6 °F 46.9 °F 30.3 in Calm   4.6 mph 84% 0 in CLR
21:10 52 °F 46.9 °F 30.3 in NNE 2 mph 3.5 mph 83% 0 in CLR
21:15 52 °F 46.9 °F 30.3 in NNE 2 mph 3.5 mph 83% 0 in CLR
21:20 52 °F 46.9 °F 30.3 in NNE 2 mph   83% 0 in CLR
21:25 52.2 °F 46.8 °F 30.3 in NNE 2 mph   82% 0 in CLR
21:30 52.2 °F 46.8 °F 30.3 in Calm     82% 0 in CLR
21:35 51.8 °F 46.6 °F 30.3 in Calm     82% 0 in CLR
21:40 51.6 °F 46.2 °F 30.3 in Calm     82% 0 in CLR
21:45 51.4 °F 46.4 °F 30.3 in Calm   4.6 mph 83% 0 in CLR
21:50 51.3 °F 46.2 °F 30.3 in South 1.8 mph 2.4 mph 83% 0 in CLR
21:55 51.3 °F 46.6 °F 30.3 in South 1.8 mph 2.3 mph 84% 0 in CLR
22:00 51.3 °F 46.6 °F 30.3 in South 2 mph 2 mph 84% 0 in CLR
22:05 51.3 °F 46.6 °F 30.3 in South 2 mph 3.6 mph 84% 0 in CLR
22:10 51.3 °F 46.2 °F 30.3 in South 1.4 mph 2.3 mph 83% 0 in CLR
22:15 51.3 °F 46.2 °F 30.3 in South 1.4 mph   83% 0 in CLR
22:20 51.3 °F 46.2 °F 30.3 in South 1.4 mph   83% 0 in CLR
22:25 51.1 °F 46 °F 30.3 in South 1.4 mph   83% 0 in CLR
22:30 51.1 °F 46 °F 30.3 in Calm     83% 0 in CLR
22:35 50.7 °F 45.3 °F 30.3 in Calm   5.8 mph 82% 0 in CLR
22:40 50.4 °F 45.1 °F 30.3 in SE 2.4 mph 4.6 mph 82% 0 in CLR
22:45 49.8 °F 44.4 °F 30.3 in SSE 2.4 mph 4.6 mph 82% 0 in CLR
22:50 49.5 °F 44.4 °F 30.3 in SSE 3 mph 6 mph 83% 0 in CLR
22:55 49.1 °F 44.2 °F 30.3 in SSE 3.1 mph 5.2 mph 83% 0 in CLR
23:00 48.9 °F 44.2 °F 30.3 in SSE 3 mph 5 mph 84% 0 in CLR
23:05 48.7 °F 44.1 °F 30.3 in South 3.6 mph 5.8 mph 84% 0 in CLR
23:10 48.7 °F 44.4 °F 30.3 in SSW 3.6 mph 4.6 mph 85% 0 in CLR
23:15 48.7 °F 44.4 °F 30.3 in SW 3.6 mph 4.6 mph 85% 0 in CLR
23:20 48.7 °F 44.4 °F 30.3 in SSW 4 mph 5.2 mph 85% 0 in CLR
23:25 48.9 °F 44.6 °F 30.3 in SW 4 mph 4.6 mph 85% 0 in CLR
23:30 48.9 °F 44.6 °F 30.3 in SW 3.1 mph 4.6 mph 85% 0 in CLR
23:35 48.9 °F 44.6 °F 30.3 in SSW 3.1 mph 4.6 mph 85% 0 in CLR
23:40 48.9 °F 44.6 °F 30.3 in SW 2.9 mph 5.8 mph 85% 0 in CLR
23:45 49.1 °F 44.8 °F 30.3 in SW 2.9 mph 5.8 mph 85% 0 in CLR
23:50 49.1 °F 44.8 °F 30.3 in SW 3.1 mph 5.8 mph 85% 0 in CLR
23:55 49.3 °F 45 °F 30.3 in SSW 3.1 mph 5.8 mph 85% 0 in CLR
Murcia-Puente Tocinos, España
Compliments of Weather Underground - 2.75 mb

La estación de MeteoMurcia.com, publica sus datos en los siguientes proyectos:

Weather Underground PWS IMURCIAP2 Meteoclimatic www.awekas.at

W3Counter
Web Analytics